TimeEDT,TemperatureF,Dew PointF,Humidity,Sea Level PressureIn,VisibilityMPH,Wind Direction,Wind SpeedMPH,Gust SpeedMPH,PrecipitationIn,Events,Conditions,WindDirDegrees,DateUTC
12:56 AM,66.0,57.0,73,30.00,10.0,South,3.5,-,N/A,,Scattered Clouds,170,2013-05-09 04:56:00
1:56 AM,63.0,57.0,81,30.00,10.0,SSE,3.5,-,N/A,,Scattered Clouds,160,2013-05-09 05:56:00
2:56 AM,62.1,55.9,80,29.99,10.0,SW,8.1,-,N/A,,Clear,230,2013-05-09 06:56:00
3:56 AM,62.1,55.9,80,29.99,10.0,SSW,8.1,-,N/A,,Partly Cloudy,210,2013-05-09 07:56:00
4:56 AM,63.0,55.9,78,30.00,10.0,SW,3.5,-,N/A,,Scattered Clouds,220,2013-05-09 08:56:00
5:56 AM,61.0,55.0,81,30.00,10.0,Calm,Calm,-,N/A,,Clear,0,2013-05-09 09:56:00
6:56 AM,61.0,55.9,83,30.02,10.0,SSW,3.5,-,N/A,,Scattered Clouds,210,2013-05-09 10:56:00
7:56 AM,62.1,55.9,80,30.02,10.0,SW,4.6,-,N/A,,Scattered Clouds,220,2013-05-09 11:56:00
8:56 AM,66.0,57.9,75,30.03,10.0,SSW,5.8,-,N/A,,Partly Cloudy,210,2013-05-09 12:56:00
9:56 AM,70.0,57.9,65,30.03,10.0,SW,5.8,-,N/A,,Scattered Clouds,220,2013-05-09 13:56:00
10:56 AM,75.9,59.0,56,30.03,10.0,West,4.6,-,N/A,,Scattered Clouds,280,2013-05-09 14:56:00
11:56 AM,78.1,57.9,50,30.04,10.0,West,8.1,-,N/A,,Scattered Clouds,260,2013-05-09 15:56:00
12:56 PM,80.1,57.0,45,30.04,10.0,West,6.9,-,N/A,,Mostly Cloudy,270,2013-05-09 16:56:00
1:56 PM,81.0,55.9,42,30.02,10.0,SSW,11.5,18.4,N/A,,Mostly Cloudy,210,2013-05-09 17:56:00
2:56 PM,81.0,55.0,41,30.00,10.0,SW,10.4,-,N/A,,Mostly Cloudy,230,2013-05-09 18:56:00
3:56 PM,81.0,54.0,39,29.98,10.0,SW,15.0,19.6,N/A,,Mostly Cloudy,230,2013-05-09 19:56:00
4:56 PM,79.0,55.0,44,29.97,10.0,SW,11.5,-,N/A,,Overcast,220,2013-05-09 20:56:00
5:56 PM,75.9,59.0,56,29.96,10.0,NW,3.5,-,0.00,,Overcast,320,2013-05-09 21:56:00
6:56 PM,77.0,59.0,54,29.94,10.0,Calm,Calm,-,N/A,,Overcast,0,2013-05-09 22:56:00
7:56 PM,77.0,55.9,48,29.95,10.0,South,6.9,-,N/A,,Mostly Cloudy,190,2013-05-09 23:56:00
8:56 PM,75.0,59.0,57,29.96,10.0,South,5.8,-,0.00,Rain,Light Rain,170,2013-05-10 00:56:00
9:56 PM,72.0,59.0,64,29.95,10.0,SSE,6.9,-,0.00,,Overcast,160,2013-05-10 01:56:00
10:56 PM,72.0,59.0,64,29.95,10.0,South,9.2,-,N/A,,Mostly Cloudy,170,2013-05-10 02:56:00
11:56 PM,72.0,57.9,61,29.94,10.0,South,9.2,-,N/A,,Scattered Clouds,190,2013-05-10 03:56:00